Location: Moscow
(38.8570°N, 84.2291°W)
Time: 20:45:17
(UTC+00:00)

UKube-1 - Pass Details

Date: 12 March 2026
Orbit: 527 x 530 km, 98.4° (Epoch: 11 April)

Event Time Altitude Azimuth Distance (km) Brightness Sun altitude
Rises 10:07:59 0° 29° (NNE) 2,671 ? -21.1°
Reaches altitude 10° 10:10:31 10° 45° (NE) 1,776 ? -20.6°
Maximum altitude 10:13:27 21° 96° (E) 1,221 ? -20.1°
Drops below altitude 10° 10:16:23 10° 146° (SSE) 1,763 ? -19.5°
Sets 10:18:52 0° 163° (SSE) 2,646 ? -19.0°
